International Falls, MN

6:24 AM CST on January 17, 2018 (GMT -0600)
Falls International

Weather History for KINL - December, 2011

Change the Weather History Date:

Thursday, December 15, 2011

  Actual Average Record
Temperature  
Mean Temperature 22 °F 10 °F  
Max Temperature 33 °F 19 °F 44 °F (1997)
Min Temperature 10 °F 0 °F -32 °F (2013)
Degree Days  
Heating Degree Days 43 55  
Month to date heating degree days 722 783  
Since 1 July heating degree days 2842 3244  
Cooling Degree Days 0 0  
Month to date cooling degree days 0 0  
Year to date cooling degree days 207 192  
Moisture  
Dew Point 19 °F    
Average Humidity 84    
Maximum Humidity 96    
Minimum Humidity 71    
Precipitation  
Precipitation 0.04 in 0.03 in 0.76 in (2012)
Month to date precipitation 0.07 0.41  
Year to date precipitation 19.29 23.82  
Snow  
Snow 1.00 in 0.50 in 5.10 in (2012)
Month to date snowfall 1.7 7.2  
Since 1 July snowfall 14.0 23.2  
Snow Depth 2.00 in    
Sea Level Pressure  
Sea Level Pressure 29.81 in    
Wind  
Wind Speed 14 mph (WNW)    
Max Wind Speed 26 mph    
Max Gust Speed 33 mph    
Visibility 6 miles    
Events Rain , Snow    
T = Trace of Precipitation, MM = Missing Value Source: NWS Daily Summary

Daily Weather History Graph

Daily Weather History Graph

Search for Another Location

Airport or City:

Trip Planner

Search our weather history database for the weather conditions in past years. The results will help you decide how hot, cold, wet, or windy it might be!

Date:

Astronomy

Dec. 15, 2011 Rise Set
Actual Time 7:59 AM CST 4:18 PM CST
Civil Twilight 7:22 AM CST 4:55 PM CST
Nautical Twilight 6:41 AM CST 5:35 PM CST
Astronomical Twilight 6:03 AM CST 6:13 PM CST
Moon 10:08 PM CST (12/15) 10:55 AM CST (12/15)
Length of Visible Light 9h 33m
Length of Day
8h 19m
Waning Gibbous, 74% of the Moon is Illuminated
Dec 15
Waning Gibbous
Dec 17
Last Quarter
Dec 24
New
Jan 1
First Quarter
Jan 9
Full

Hourly Weather History & Observations

Time (CST) Temp. Windchill Dew Point Humidity Pressure Visibility Wind Dir Wind Speed Gust Speed Precip Events Conditions
12:20 AM 32.0 °F 23.0 °F 30.2 °F 93% 29.57 in 8.0 mi WNW 11.5 mph - 0.00 in Snow Light Snow
12:43 AM 30.2 °F 20.8 °F 30.2 °F 100% 29.57 in 6.0 mi WNW 11.5 mph - 0.00 in Snow Light Snow
12:51 AM 30.2 °F 20.2 °F 28.4 °F 93% 29.57 in 6.0 mi WNW 12.7 mph - 0.00 in Snow Light Snow
12:55 AM 30.9 °F 22.8 °F 28.9 °F 92% 29.62 in 7.0 mi WNW 9.2 mph 18.4 mph 0.00 in Snow Light Snow
1:17 AM 30.2 °F 19.8 °F 28.4 °F 93% 29.57 in 3.0 mi WNW 13.8 mph 21.9 mph 0.00 in Snow Light Snow
1:25 AM 30.2 °F 19.8 °F 28.4 °F 93% 29.57 in 2.5 mi WNW 13.8 mph 21.9 mph 0.00 in Snow Light Snow
1:29 AM 30.2 °F 19.3 °F 28.4 °F 93% 29.57 in 1.8 mi WNW 15.0 mph - 0.00 in Snow Light Snow
1:50 AM 30.2 °F 21.3 °F 28.4 °F 93% 29.57 in 2.0 mi WNW 10.4 mph - 0.01 in Snow Light Snow
1:55 AM 30.0 °F 20.0 °F 28.0 °F 92% 29.61 in 3.0 mi WNW 12.7 mph - 0.01 in Snow Light Snow
2:30 AM 28.4 °F 18.0 °F 26.6 °F 93% 29.58 in 6.0 mi WNW 12.7 mph - 0.01 in Rain Light Freezing Rain
2:55 AM 27.0 °F 14.7 °F 25.0 °F 92% 29.64 in 10.0 mi West 16.1 mph 24.2 mph 0.01 in Rain Light Freezing Rain
3:01 AM 26.6 °F 15.7 °F 24.8 °F 93% 29.59 in 10.0 mi West 12.7 mph 23.0 mph 0.00 in   Overcast
3:28 AM 26.6 °F 14.3 °F 24.8 °F 93% 29.59 in 5.0 mi West 16.1 mph 25.3 mph 0.00 in   Overcast
3:55 AM 25.0 °F 13.1 °F 23.0 °F 92% 29.65 in 10.0 mi West 13.8 mph 24.2 mph 0.00 in   Overcast
4:15 AM 24.8 °F 11.5 °F 21.2 °F 86% 29.60 in 9.0 mi WNW 17.3 mph 24.2 mph 0.00 in Snow Light Snow
4:55 AM 23.0 °F 10.1 °F 19.9 °F 88% 29.67 in 10.0 mi West 15.0 mph 20.7 mph 0.00 in   Overcast
5:55 AM 23.0 °F 10.6 °F 19.9 °F 88% 29.69 in 9.0 mi WNW 13.8 mph - N/A   Overcast
6:44 AM 23.0 °F 10.6 °F 19.4 °F 86% 29.65 in 9.0 mi WNW 13.8 mph 20.7 mph 0.00 in Snow Light Snow
6:55 AM 23.0 °F 10.6 °F 19.0 °F 85% 29.71 in 10.0 mi WNW 13.8 mph 20.7 mph 0.00 in   Overcast
7:02 AM 23.0 °F 11.7 °F 19.4 °F 86% 29.65 in 10.0 mi WNW 11.5 mph 20.7 mph N/A   Overcast
7:55 AM 23.0 °F 11.7 °F 19.0 °F 85% 29.73 in 8.0 mi WNW 11.5 mph 18.4 mph 0.00 in Snow Light Snow
8:20 AM 23.0 °F 10.6 °F 19.4 °F 86% 29.68 in 10.0 mi WNW 13.8 mph - 0.00 in   Overcast
8:55 AM 23.0 °F 11.7 °F 19.0 °F 85% 29.75 in 7.0 mi WNW 11.5 mph - 0.00 in   Overcast
9:26 AM 23.0 °F 10.6 °F 19.4 °F 86% 29.71 in 1.8 mi WNW 13.8 mph 19.6 mph 0.00 in Snow Light Snow
9:55 AM 23.0 °F 10.1 °F 19.0 °F 85% 29.78 in 1.0 mi WNW 15.0 mph 20.7 mph 0.00 in Snow Light Snow
10:03 AM 23.0 °F 10.1 °F 19.4 °F 86% 29.73 in 0.8 mi WNW 15.0 mph 20.7 mph 0.00 in Snow Light Snow
10:16 AM 23.0 °F 10.1 °F 19.4 °F 86% 29.74 in 1.0 mi WNW 15.0 mph 20.7 mph 0.00 in Snow Light Snow
10:55 AM 24.1 °F 9.8 °F 19.9 °F 84% 29.82 in 1.2 mi NW 19.6 mph 27.6 mph 0.00 in Snow Light Snow
11:40 AM 24.8 °F 10.3 °F 19.4 °F 80% 29.79 in 3.0 mi NW 20.7 mph 27.6 mph 0.00 in Snow Light Snow
11:53 AM 24.8 °F 8.7 °F 17.6 °F 74% 29.80 in 1.8 mi NW 26.5 mph 33.4 mph 0.00 in Snow Light Snow
11:55 AM 23.0 °F 6.9 °F 19.0 °F 85% 29.86 in 1.2 mi NW 24.2 mph 33.4 mph 0.00 in Snow Light Snow
12:32 PM 23.0 °F 9.2 °F 17.6 °F 80% 29.83 in 0.8 mi NW 17.3 mph 28.8 mph 0.00 in Snow Light Snow
12:45 PM 23.0 °F 8.0 °F 19.4 °F 86% 29.84 in 1.0 mi NW 20.7 mph 28.8 mph 0.01 in Snow Light Snow
12:50 PM 23.0 °F 8.3 °F 17.6 °F 80% 29.85 in 2.0 mi NW 19.6 mph 28.8 mph 0.01 in Snow Light Snow
12:55 PM 23.0 °F 8.7 °F 18.0 °F 81% 29.91 in 3.0 mi NW 18.4 mph 29.9 mph 0.01 in Snow Light Snow
1:55 PM 21.9 °F 6.9 °F 16.0 °F 78% 29.97 in 10.0 mi NW 19.6 mph 28.8 mph 0.00 in   Overcast
2:55 PM 21.0 °F 6.2 °F 14.0 °F 74% 30.05 in 9.0 mi NW 18.4 mph 28.8 mph 0.00 in Snow Light Snow
3:55 PM 19.9 °F 7.3 °F 12.9 °F 74% 30.12 in 10.0 mi NW 12.7 mph - 0.00 in   Overcast
4:55 PM 17.1 °F 2.5 °F 12.0 °F 81% 30.18 in 9.0 mi WNW 15.0 mph - 0.00 in Snow Light Snow
5:55 PM 15.1 °F 1.8 °F 10.9 °F 84% 30.23 in 5.0 mi NW 11.5 mph - 0.00 in Snow Light Snow
6:55 PM 15.1 °F 2.5 °F 10.0 °F 80% 30.25 in 3.0 mi NW 10.4 mph - 0.00 in Snow Light Snow
7:55 PM 14.0 °F -0.2 °F 8.1 °F 77% 30.27 in 9.0 mi NW 12.7 mph 20.7 mph 0.00 in Snow Light Snow
8:55 PM 12.9 °F -0.9 °F 7.0 °F 77% 30.30 in 10.0 mi NNW 11.5 mph - 0.00 in   Overcast
9:55 PM 12.0 °F 0.5 °F 6.1 °F 77% 30.31 in 9.0 mi North 8.1 mph - 0.00 in   Overcast
10:55 PM 10.9 °F -0.8 °F 5.0 °F 77% 30.34 in 10.0 mi NNW 8.1 mph - N/A   Overcast
11:55 PM 10.0 °F -1.9 °F 3.9 °F 76% 30.36 in 10.0 mi NNW 8.1 mph - N/A   Overcast